World > North America > United States > Mississippi > Shaw  

Shaw, MS Hourly Weather Updates

Feedback E-mail the Weather

Quick Clicks

Shaw, MS Weather Maps

°F °C°F °C
Shaw Weather Map
UTC Time: 5/25/2024, 18:24
Your Time:

Shaw, MS Regional Weather

Expires:202405251900;;851456
ASUS44 KJAN 251810
RWRMS 

MISSISSIPPI HOURLY WEATHER ROUNDUP
NATIONAL WEATHER SERVICE JACKSON MS
100 PM CDT SAT MAY 25 2024

NOTE: "FAIR: INDICATES FEW OR NO CLOUDS BELOW 12,000 FEET WITH NO
SIGNIFICANT WEATHER AND/OR OBSTRUCTIONS TO VISIBILITY.


MSZ001>002-007>008-010>013-018>021-025>028-034>036-251900-
NORTHWEST MISSISSIPPI
  
CITY           SKY/WX    TMP DP  RH WIND       PRES   REMARKS
BATESVILLE     SUNNY     84  72  65 S6        29.88F                  
CLARKSDALE       N/A     84  84 100 SE7       29.89F HX 104           
GREENWOOD      SUNNY     87  75  67 CALM      29.88F HX  96           
6HR MIN TEMP:  73; 6HR MAX TEMP:  87;                                

GREENVILLE     SUNNY     89  77  67 SW8       29.86F HX 101           
6HR MIN TEMP:  77; 6HR MAX TEMP:  90;                                

OLIVE BRANCH   MOSUNNY   86  70  58 W6        29.88F HX  90           
OXFORD         MOSUNNY   82  70  65 SW8       29.91F                  
TUNICA         MOSUNNY   84  74  72 S3        29.87F HX  92           
WINONA         CLOUDY    84  72  67 CALM      29.90F HX  90           
$$


SKY/WX - Weather  TMP - Temperature  DP - Dew Point  RH - Humidity
WIND - Wind Direction/Speed PRES - Barometric Pressure VSB - Visibility
WCI - Wind Chill Index E13G22 Wind - East Wind 13 mph/Gusts of 22 mph

Trending Headlines

Trending Entertainment Headlines

Shaw Radar Loop

Use the map search tool if you want to place a location marker on the radar map...

Shaw Quick Facts

National Two Day Weather Forecast


E-mail the Shaw Weather Forecast

Voice your opinion or tell us about page issues...